Location: Unspecified
(40.9447°N, 78.9903°W)
Time: 10:08:44
(UTC-04:00)

Resurs 1-4 Rocket - Pass Details

Date: 26 July 2021
Orbit: 799 x 814 km, 98.6° (Epoch: 27 September)

Event Time Altitude Azimuth Distance (km) Brightness Sun altitude
Rises 04:10:54 0° 358° (N) 3,343 6.0 -18.2°
Reaches altitude 10° 04:13:52 10° 341° (NNW) 2,404 4.9 -17.8°
Maximum altitude 04:17:29 19° 298° (WNW) 1,841 3.8 -17.3°
Enters shadow 04:19:27 16° 271° (W) 2,017 3.8 -17.1°
